Weather History for Vitoria, Spain

Change the Weather History Date:

Friday, May 3, 2013

  Actual Average Record
Temperature  
Mean Temperature 46 °F -  
Max Temperature 51 °F 69 °F 80 °F (1997)
Min Temperature 42 °F 45 °F 32 °F (2003)
Degree Days  
Heating Degree Days 18    
Moisture  
Dew Point 41 °F    
Average Humidity 78    
Maximum Humidity 93    
Minimum Humidity 66    
Precipitation  
Precipitation 0.00 in - - ()
Sea Level Pressure  
Sea Level Pressure 30.17 in    
Wind  
Wind Speed 4 mph ()    
Max Wind Speed 13 mph    
Max Gust Speed -    
Visibility 6.2 miles    
Events      
Averages and records for this station are not official NWS values.
T = Trace of Precipitation, MM = Missing Value Source: Averaged Metar Reports

Daily Weather History Graph

Daily Weather History Graph

Search for Another Location

Airport:

Trip Planner

Search our weather history database for the weather conditions in past years. The results will help you decide how hot, cold, wet, or windy it might be!

Date:

Astronomy

May. 03, 2013 Rise Set
Actual Time 7:02 AM CEST 9:13 PM CEST
Civil Twilight 6:31 AM CEST 9:45 PM CEST
Nautical Twilight 5:52 AM CEST 10:23 PM CEST
Astronomical Twilight 5:10 AM CEST 11:06 PM CEST
Moon 3:27 AM CEST (5/3) 2:43 PM CEST (5/3)
Length of Visible Light 15h 14m
Length of Day
14h 11m
Last Quarter, 40% of the Moon is Illuminated
May 3
Last Quarter
May 10
New
May 18
First Quarter
May 25
Full
May 31
Last Quarter

Hourly Weather History & Observations

Time (CEST) Temp. Windchill Dew Point Humidity Pressure Visibility Wind Dir Wind Speed Gust Speed Precip Events Conditions
12:00 AM 46.4 °F 44.3 °F 41.0 °F 81% 30.21 in 6.2 mi WNW 4.6 mph - N/A   Mostly Cloudy
12:30 AM 44.6 °F - 41.0 °F 87% 30.21 in 6.2 mi NNW 2.3 mph - N/A   Mostly Cloudy
1:00 AM 44.6 °F - 39.2 °F 81% 30.21 in 6.2 mi Variable 2.3 mph - N/A   Mostly Cloudy
1:30 AM 42.8 °F - 39.2 °F 87% 30.21 in 6.2 mi Variable 1.2 mph - N/A   Mostly Cloudy
2:00 AM 42.8 °F - 39.2 °F 87% 30.18 in 6.2 mi NNW 1.2 mph - N/A   Scattered Clouds
2:30 AM 42.8 °F - 39.2 °F 87% 30.18 in 6.2 mi NNE 1.2 mph - N/A   Scattered Clouds
3:00 AM 44.6 °F - 39.2 °F 81% 30.18 in 6.2 mi Variable 1.2 mph - N/A   Scattered Clouds
3:30 AM 44.6 °F - 37.4 °F 76% 30.18 in 6.2 mi Variable 1.2 mph - N/A   Mostly Cloudy
4:00 AM 44.6 °F 42.2 °F 37.4 °F 76% 30.15 in 6.2 mi NW 4.6 mph - N/A   Mostly Cloudy
4:30 AM 44.6 °F 43.1 °F 39.2 °F 81% 30.15 in 6.2 mi North 3.5 mph - N/A   Mostly Cloudy
5:00 AM 44.6 °F - 39.2 °F 81% 30.15 in 6.2 mi Calm Calm - N/A   Mostly Cloudy
5:30 AM 44.6 °F 43.1 °F 39.2 °F 81% 30.15 in 6.2 mi NNW 3.5 mph - N/A   Mostly Cloudy
6:00 AM 44.6 °F 43.1 °F 39.2 °F 81% 30.15 in 6.2 mi North 3.5 mph - N/A   Mostly Cloudy
6:30 AM 44.6 °F 43.1 °F 39.2 °F 81% 30.15 in 6.2 mi North 3.5 mph - N/A   Mostly Cloudy
7:00 AM 44.6 °F - 39.2 °F 81% 30.15 in 6.2 mi Variable 1.2 mph - N/A   Overcast
7:30 AM 44.6 °F - 39.2 °F 81% 30.18 in 6.2 mi South 1.2 mph - N/A   Overcast
8:00 AM 44.6 °F - 41.0 °F 87% 30.18 in 6.2 mi Calm Calm - N/A   Overcast
8:30 AM 44.6 °F - 39.2 °F 81% 30.18 in 6.2 mi Variable 1.2 mph - N/A   Overcast
9:00 AM 46.4 °F 42.4 °F 39.2 °F 76% 30.18 in 6.2 mi NNW 8.1 mph - N/A   Scattered Clouds
9:30 AM 46.4 °F 41.5 °F 37.4 °F 71% 30.18 in 6.2 mi NW 10.4 mph - N/A   Scattered Clouds
10:00 AM 46.4 °F 41.5 °F 37.4 °F 71% 30.18 in 6.2 mi NW 10.4 mph - N/A   Mostly Cloudy
10:30 AM 48.2 °F - 39.2 °F 71% 30.18 in 6.2 mi WNW 6.9 mph - N/A   Mostly Cloudy
11:00 AM 50.0 °F - 39.2 °F 66% 30.18 in 6.2 mi NW 10.4 mph - N/A   Mostly Cloudy
11:30 AM 50.0 °F - 41.0 °F 71% 30.18 in 6.2 mi Variable 2.3 mph - N/A   Mostly Cloudy
12:00 PM 51.8 °F - 42.8 °F 71% 30.18 in 6.2 mi NNW 1.2 mph - N/A   Mostly Cloudy
12:30 PM 51.8 °F - 41.0 °F 67% 30.18 in 6.2 mi NW 1.2 mph - N/A   Mostly Cloudy
1:00 PM 51.8 °F - 42.8 °F 71% 30.18 in 6.2 mi Variable 2.3 mph - N/A   Mostly Cloudy
1:30 PM 50.0 °F - 42.8 °F 76% 30.18 in 6.2 mi NW 9.2 mph - N/A   Mostly Cloudy
2:00 PM 50.0 °F - 42.8 °F 76% 30.18 in 6.2 mi NW 11.5 mph - N/A   Mostly Cloudy
2:30 PM 51.8 °F - 42.8 °F 71% 30.18 in 6.2 mi WNW 9.2 mph - N/A   Mostly Cloudy
3:00 PM 51.8 °F - 42.8 °F 71% 30.18 in 6.2 mi NE 4.6 mph - N/A   Mostly Cloudy
3:30 PM 51.8 °F - 42.8 °F 71% 30.18 in 6.2 mi Variable 2.3 mph - N/A   Mostly Cloudy
4:00 PM 51.8 °F - 42.8 °F 71% 30.18 in 6.2 mi NNW 4.6 mph - N/A   Mostly Cloudy
4:30 PM 51.8 °F - 42.8 °F 71% 30.18 in 6.2 mi North 9.2 mph - N/A   Mostly Cloudy
5:00 PM 51.8 °F - 42.8 °F 71% 30.15 in 6.2 mi NNW 5.8 mph - N/A   Mostly Cloudy
5:30 PM 51.8 °F - 44.6 °F 76% 30.15 in 6.2 mi NNE 10.4 mph - N/A   Mostly Cloudy
6:00 PM 51.8 °F - 42.8 °F 71% 30.15 in 6.2 mi NNE 11.5 mph - N/A   Mostly Cloudy
6:30 PM 51.8 °F - 42.8 °F 71% 30.15 in 6.2 mi NNE 11.5 mph - N/A   Mostly Cloudy
7:00 PM 51.8 °F - 42.8 °F 71% 30.15 in 6.2 mi North 10.4 mph - N/A   Mostly Cloudy
7:30 PM 50.0 °F - 42.8 °F 76% 30.15 in 6.2 mi NNE 12.7 mph - N/A   Mostly Cloudy
8:00 PM 50.0 °F - 44.6 °F 82% 30.15 in 6.2 mi NNE 10.4 mph - N/A   Mostly Cloudy
8:30 PM 50.0 °F - 44.6 °F 82% 30.15 in 6.2 mi NE 11.5 mph - N/A   Mostly Cloudy
9:00 PM 50.0 °F - 42.8 °F 76% 30.15 in 6.2 mi NNE 11.5 mph - N/A   Mostly Cloudy
9:30 PM 48.2 °F - 42.8 °F 82% 30.18 in 6.2 mi NNE 6.9 mph - N/A   Mostly Cloudy
10:00 PM 48.2 °F - 44.6 °F 87% 30.18 in 6.2 mi NNE 10.4 mph - N/A   Mostly Cloudy
10:30 PM 48.2 °F - 44.6 °F 87% 30.18 in 6.2 mi NNE 9.2 mph - N/A   Mostly Cloudy
11:00 PM 48.2 °F - 42.8 °F 82% 30.18 in 6.2 mi NNE 8.1 mph - N/A   Mostly Cloudy
11:30 PM 46.4 °F - 44.6 °F 93% 30.18 in 6.2 mi Variable 2.3 mph - N/A   Mostly Cloudy